When you browse on this site, cookies collect data to enhance your experience and personalize the content and advertising you see.
Visit our Privacy Policy to learn more. By continuing to use the site, you agree to this use of cookies and data.
  • In Romania
  • List of Countries
  • For 7 days
  • Water Temperature
  • Satellite Maps
  • Weather Map
  • Weather Widgets
  • user-avatar
    Login

    Hourly Weather Pavskoe

    Today, 26 April, Friday

    Time Temperature Precipitation Wind Pressure Humidity
    00:00 +10°C° 0 mm 2 mps 755 mmHg 70%
    01:00 +9°C° 0 mm 2 mps 755 mmHg 73%
    02:00 +8°C° 0 mm 2 mps 755 mmHg 75%
    03:00 +8°C° 0 mm 2 mps 755 mmHg 76%
    04:00 +8°C° 0 mm 2 mps 755 mmHg 78%
    05:00 +7°C° 0 mm 2 mps 755 mmHg 79%
    06:00 +9°C° 0 mm 2 mps 755 mmHg 72%
    07:00 +12°C° 0 mm 2 mps 755 mmHg 66%
    08:00 +14°C° 0 mm 2 mps 755 mmHg 59%
    09:00 +16°C° 0 mm 2 mps 754 mmHg 54%
    10:00 +17°C° 0 mm 2 mps 754 mmHg 49%
    11:00 +19°C° 0 mm 2 mps 754 mmHg 44%
    12:00 +20°C° 0 mm 2 mps 754 mmHg 42%
    13:00 +20°C° 0 mm 2 mps 753 mmHg 40%
    14:00 +22°C° 0 mm 1 mps 753 mmHg 38%
    15:00 +22°C° 0 mm 1 mps 752 mmHg 38%
    16:00 +22°C° 0 mm 1 mps 752 mmHg 39%
    17:00 +22°C° 0 mm 1 mps 752 mmHg 40%
    18:00 +19°C° 0 mm 1 mps 751 mmHg 47%
    19:00 +16°C° 0 mm 1 mps 751 mmHg 54%
    20:00 +14°C° 0 mm 1 mps 751 mmHg 61%
    21:00 +14°C° 0.2 mm 1 mps 750 mmHg 65%
    22:00 +13°C° 0.2 mm 1 mps 750 mmHg 69%
    23:00 +13°C° 0.2 mm 1 mps 750 mmHg 74%

    Tomorrow, 27 April, Saturday

    Time Temperature Precipitation Wind Pressure Humidity
    00:00 +13°C° 0.2 mm 1 mps 750 mmHg 76%
    01:00 +13°C° 0.2 mm 1 mps 749 mmHg 78%
    02:00 +13°C° 0.2 mm 2 mps 749 mmHg 81%
    03:00 +12°C° 0.1 mm 2 mps 749 mmHg 82%
    04:00 +12°C° 0.1 mm 2 mps 748 mmHg 83%
    05:00 +12°C° 0.1 mm 2 mps 748 mmHg 84%
    06:00 +13°C° 0.1 mm 2 mps 747 mmHg 79%
    07:00 +14°C° 0.1 mm 2 mps 747 mmHg 74%
    08:00 +16°C° 0.1 mm 2 mps 747 mmHg 69%
    09:00 +18°C° 0 mm 1 mps 746 mmHg 63%
    10:00 +19°C° 0 mm 1 mps 746 mmHg 57%
    11:00 +20°C° 0 mm 1 mps 746 mmHg 52%
    12:00 +21°C° 0 mm 1 mps 745 mmHg 48%
    13:00 +22°C° 0 mm 1 mps 745 mmHg 44%
    14:00 +23°C° 0 mm 2 mps 744 mmHg 40%
    15:00 +20°C° 0.2 mm 3 mps 744 mmHg 50%
    16:00 +18°C° 0.2 mm 3 mps 744 mmHg 60%
    17:00 +15°C° 0.2 mm 4 mps 743 mmHg 70%
    18:00 +13°C° 0.6 mm 4 mps 744 mmHg 75%
    19:00 +12°C° 0.6 mm 3 mps 744 mmHg 80%
    20:00 +11°C° 0.6 mm 3 mps 745 mmHg 86%
    21:00 +8°C° 0.1 mm 4 mps 745 mmHg 82%
    22:00 +7°C° 0.1 mm 4 mps 746 mmHg 79%
    23:00 +6°C° 0.1 mm 5 mps 746 mmHg 76%

    Day after tomorrow, 28 April, Sunday

    Time Temperature Precipitation Wind Pressure Humidity
    00:00 +3°C° 0 mm 5 mps 747 mmHg 76%
    01:00 +2°C° 0 mm 5 mps 748 mmHg 76%
    02:00 0°C° 0 mm 5 mps 749 mmHg 77%
    03:00 -1°C° 0 mm 5 mps 749 mmHg 75%
    04:00 -1°C° 0 mm 5 mps 750 mmHg 73%
    05:00 -2°C° 0 mm 5 mps 750 mmHg 71%
    06:00 -1°C° 0 mm 5 mps 751 mmHg 65%
    07:00 0°C° 0 mm 5 mps 751 mmHg 59%
    08:00 +1°C° 0 mm 5 mps 752 mmHg 52%
    09:00 +3°C° 0 mm 4 mps 752 mmHg 48%
    10:00 +4°C° 0 mm 4 mps 752 mmHg 43%
    11:00 +5°C° 0 mm 4 mps 752 mmHg 39%
    12:00 +5°C° 0 mm 4 mps 753 mmHg 37%
    13:00 +6°C° 0 mm 4 mps 753 mmHg 36%
    14:00 +6°C° 0 mm 4 mps 753 mmHg 34%
    15:00 +6°C° 0 mm 4 mps 753 mmHg 34%
    16:00 +6°C° 0 mm 4 mps 753 mmHg 35%
    17:00 +5°C° 0 mm 4 mps 754 mmHg 35%
    18:00 +4°C° 0 mm 3 mps 754 mmHg 40%
    19:00 +2°C° 0 mm 3 mps 755 mmHg 45%
    20:00 +2°C° 0 mm 2 mps 755 mmHg 50%
    21:00 +1°C° 0 mm 2 mps 756 mmHg 53%
    22:00 +1°C° 0 mm 2 mps 756 mmHg 55%
    23:00 -1°C° 0 mm 2 mps 756 mmHg 58%

    29 April, Monday

    Time Temperature Precipitation Wind Pressure Humidity
    00:00 -2°C° 0 mm 2 mps 757 mmHg 60%
    01:00 -2°C° 0 mm 2 mps 757 mmHg 62%
    02:00 -3°C° 0 mm 2 mps 757 mmHg 64%
    03:00 -1°C° 0 mm 1 mps 757 mmHg 62%
    04:00 0°C° 0 mm 1 mps 757 mmHg 60%
    05:00 0°C° 0 mm 1 mps 758 mmHg 59%
    06:00 -1°C° 0 mm 2 mps 758 mmHg 51%
    07:00 +2°C° 0 mm 2 mps 758 mmHg 44%
    08:00 +4°C° 0 mm 2 mps 758 mmHg 37%
    09:00 +5°C° 0 mm 2 mps 758 mmHg 34%
    10:00 +6°C° 0 mm 2 mps 757 mmHg 32%
    11:00 +7°C° 0 mm 2 mps 757 mmHg 30%
    12:00 +8°C° 0 mm 2 mps 757 mmHg 29%
    13:00 +10°C° 0 mm 1 mps 756 mmHg 28%
    14:00 +10°C° 0 mm 1 mps 756 mmHg 27%
    15:00 +10°C° 0 mm 1 mps 755 mmHg 28%
    16:00 +9°C° 0 mm 1 mps 755 mmHg 29%
    17:00 +9°C° 0 mm 1 mps 754 mmHg 30%
    18:00 +7°C° 0 mm 1 mps 754 mmHg 36%
    19:00 +5°C° 0 mm 1 mps 754 mmHg 41%
    20:00 +3°C° 0 mm 0 mps 754 mmHg 47%
    21:00 +3°C° 0 mm 1 mps 754 mmHg 50%
    22:00 +3°C° 0 mm 1 mps 753 mmHg 54%
    23:00 +2°C° 0 mm 2 mps 753 mmHg 57%

    30 April, Tuesday

    Time Temperature Precipitation Wind Pressure Humidity
    00:00 +1°C° 0 mm 2 mps 753 mmHg 58%
    01:00 +1°C° 0 mm 2 mps 753 mmHg 60%
    02:00 +1°C° 0 mm 2 mps 753 mmHg 62%
    03:00 +1°C° 0 mm 2 mps 752 mmHg 61%
    04:00 +1°C° 0 mm 2 mps 752 mmHg 60%
    05:00 +1°C° 0 mm 2 mps 752 mmHg 60%
    06:00 +3°C° 0 mm 2 mps 751 mmHg 54%
    07:00 +5°C° 0 mm 2 mps 751 mmHg 49%
    08:00 +7°C° 0 mm 2 mps 750 mmHg 43%
    09:00 +8°C° 0 mm 2 mps 750 mmHg 39%
    10:00 +9°C° 0 mm 2 mps 750 mmHg 35%
    11:00 +10°C° 0 mm 2 mps 749 mmHg 32%
    12:00 +12°C° 0 mm 2 mps 749 mmHg 32%
    13:00 +12°C° 0 mm 2 mps 748 mmHg 33%
    14:00 +12°C° 0 mm 2 mps 748 mmHg 34%
    15:00 +11°C° 0.1 mm 3 mps 747 mmHg 39%
    16:00 +10°C° 0.1 mm 3 mps 747 mmHg 45%
    17:00 +8°C° 0.1 mm 4 mps 747 mmHg 51%
    18:00 +8°C° 0.1 mm 3 mps 747 mmHg 60%
    19:00 +5°C° 0.1 mm 3 mps 747 mmHg 70%
    20:00 +5°C° 0.1 mm 2 mps 747 mmHg 79%
    21:00 +4°C° 0.1 mm 2 mps 747 mmHg 81%
    22:00 +4°C° 0.1 mm 2 mps 747 mmHg 82%
    23:00 +4°C° 0.1 mm 2 mps 747 mmHg 84%

    1 May, Wednesday

    Time Temperature Precipitation Wind Pressure Humidity
    00:00 +3°C° 0 mm 2 mps 747 mmHg 84%
    01:00 +3°C° 0 mm 2 mps 747 mmHg 84%
    02:00 +2°C° 0 mm 3 mps 747 mmHg 84%
    03:00 +2°C° 0 mm 2 mps 747 mmHg 86%
    04:00 +1°C° 0 mm 2 mps 747 mmHg 87%
    05:00 +1°C° 0 mm 2 mps 747 mmHg 89%
    06:00 +2°C° 0 mm 2 mps 747 mmHg 81%
    07:00 +4°C° 0 mm 2 mps 747 mmHg 73%
    08:00 +5°C° 0 mm 2 mps 747 mmHg 65%
    09:00 +6°C° 0 mm 2 mps 747 mmHg 57%
    10:00 +8°C° 0 mm 2 mps 747 mmHg 49%
    11:00 +9°C° 0 mm 2 mps 746 mmHg 41%
    12:00 +11°C° 0 mm 1 mps 746 mmHg 38%
    13:00 +12°C° 0 mm 1 mps 745 mmHg 35%
    14:00 +13°C° 0 mm 0 mps 745 mmHg 33%
    15:00 +12°C° 0 mm 0 mps 745 mmHg 33%
    16:00 +11°C° 0 mm 0 mps 744 mmHg 34%
    17:00 +10°C° 0 mm 0 mps 744 mmHg 35%
    18:00 +9°C° 0 mm 1 mps 743 mmHg 42%
    19:00 +8°C° 0 mm 1 mps 743 mmHg 49%
    20:00 +6°C° 0 mm 1 mps 743 mmHg 57%
    21:00 +5°C° 0 mm 1 mps 743 mmHg 61%
    22:00 +4°C° 0 mm 2 mps 742 mmHg 65%
    23:00 +3°C° 0 mm 2 mps 742 mmHg 70%
    Show more